| time (UTC) | temp F | wind direction | speed knots | gust knots | rain 1hr in | rain 24hr in | rain mn in | humidity % | barometer mb |
| 20260507044540 | 76 | 275 | 0.0 | 0.9 | 0.00 | 0.00 | 0.00 | 96 | 1012.1 |
| 20260507043042 | 76 | 0 | 0.0 | 0.9 | 0.00 | 0.00 | 0.00 | 96 | 1012.1 |
| 20260507041544 | 76 | 0 | 0.0 | 0.0 | 0.00 | 0.00 | 0.00 | 96 | 1012.1 |
| 20260507040038 | 76 | 0 | 0.0 | 0.0 | 0.00 | 0.00 | 0.00 | 96 | 1012.0 |
| 20260507034538 | 76 | 0 | 0.0 | 0.0 | 0.00 | 0.00 | 0.00 | 95 | 1011.9 |
| 20260507033044 | 76 | 0 | 0.0 | 0.0 | 0.00 | 0.00 | 0.00 | 95 | 1011.7 |
| 20260507031541 | 76 | 0 | 0.0 | 0.0 | 0.00 | 0.00 | 0.00 | 95 | 1011.5 |
| 20260507030038 | 76 | 0 | 0.0 | 0.0 | 0.00 | 0.00 | 0.00 | 95 | 1011.1 |
| 20260507024537 | 77 | 0 | 0.0 | 0.9 | 0.00 | 0.00 | 0.00 | 95 | 1011.1 |
| 20260507023041 | 77 | 0 | 0.0 | 0.9 | 0.00 | 0.00 | 0.00 | 95 | 1010.8 |
| 20260507021545 | 77 | 0 | 0.0 | 0.9 | 0.00 | 0.00 | 0.00 | 95 | 1010.5 |
| 20260507020055 | 77 | 119 | 0.0 | 1.7 | 0.00 | 0.00 | 0.00 | 94 | 1010.3 |
| 20260507014544 | 77 | 0 | 0.0 | 0.9 | 0.00 | 0.00 | 0.00 | 94 | 1010.2 |
| 20260507013048 | 77 | 0 | 0.0 | 1.7 | 0.00 | 0.00 | 0.00 | 94 | 1010.1 |
| 20260507011544 | 78 | 0 | 0.0 | 0.0 | 0.00 | 0.00 | 0.00 | 93 | 1009.9 |
| 20260507010044 | 78 | 0 | 0.0 | 1.7 | 0.00 | 0.00 | 0.00 | 93 | 1009.7 |
| 20260507004544 | 78 | 67 | 0.9 | 4.3 | 0.00 | 0.00 | 0.00 | 92 | 1009.4 |
| 20260507003038 | 79 | 0 | 0.0 | 1.7 | 0.00 | 0.00 | 0.00 | 92 | 1009.4 |
| 20260507001538 | 79 | 0 | 0.0 | 3.5 | 0.00 | 0.00 | 0.00 | 91 | 1009.4 |
| 20260507000037 | 80 | 0 | 0.0 | 1.7 | 0.00 | 0.00 | 0.00 | 90 | 1009.4 |
| 20260506234539 | 80 | 89 | 0.9 | 3.5 | 0.00 | 0.00 | 0.00 | 90 | 1009.4 |
| 20260506233043 | 80 | 52 | 0.9 | 4.3 | 0.00 | 0.00 | 0.00 | 90 | 1009.3 |
| 20260506231551 | 80 | 122 | 0.9 | 3.5 | 0.00 | 0.00 | 0.00 | 89 | 1009.1 |
| 20260506230052 | 81 | 127 | 0.0 | 3.5 | 0.00 | 0.00 | 0.00 | 88 | 1008.8 |
| 20260506224539 | 81 | 65 | 0.9 | 3.5 | 0.00 | 0.00 | 0.00 | 88 | 1008.8 |
| 20260506223049 | 81 | 51 | 0.0 | 4.3 | 0.00 | 0.00 | 0.00 | 88 | 1008.7 |
| 20260506221544 | 81 | 64 | 0.9 | 5.2 | 0.00 | 0.00 | 0.00 | 89 | 1008.7 |
| 20260506220038 | 81 | 34 | 0.9 | 5.2 | 0.00 | 0.00 | 0.00 | 89 | 1008.7 |
| 20260506214537 | 80 | 88 | 1.7 | 7.0 | 0.00 | 0.00 | 0.00 | 90 | 1008.7 |
| 20260506213059 | 80 | 85 | 2.6 | 6.1 | 0.00 | 0.00 | 0.00 | 90 | 1009.0 |
| 20260506211549 | 80 | 113 | 1.7 | 6.1 | 0.00 | 0.00 | 0.00 | 90 | 1009.2 |
| 20260506210037 | 80 | 61 | 1.7 | 6.1 | 0.00 | 0.00 | 0.00 | 89 | 1009.2 |
| 20260506204550 | 81 | 108 | 0.9 | 7.0 | 0.00 | 0.00 | 0.00 | 89 | 1009.3 |
| 20260506203047 | 80 | 89 | 3.5 | 8.7 | 0.00 | 0.00 | 0.00 | 89 | 1009.3 |
| 20260506201555 | 80 | 71 | 1.7 | 7.0 | 0.00 | 0.00 | 0.00 | 90 | 1009.4 |
| 20260506200039 | 80 | 58 | 2.6 | 7.0 | 0.00 | 0.00 | 0.00 | 90 | 1009.7 |
| 20260506194546 | 80 | 334 | 1.7 | 8.7 | 0.00 | 0.00 | 0.00 | 89 | 1009.6 |
| 20260506193044 | 80 | 96 | 1.7 | 5.2 | 0.00 | 0.00 | 0.00 | 90 | 1010.0 |
| 20260506191547 | 80 | 111 | 0.9 | 3.5 | 0.00 | 0.00 | 0.00 | 90 | 1010.2 |
| 20260506190037 | 80 | 90 | 0.9 | 5.2 | 0.00 | 0.00 | 0.00 | 90 | 1010.4 |
| 20260506184542 | 79 | 63 | 0.0 | 1.7 | 0.00 | 0.00 | 0.00 | 91 | 1010.8 |
| 20260506183050 | 79 | 172 | 0.0 | 5.2 | 0.00 | 0.00 | 0.00 | 90 | 1010.9 |
| 20260506181539 | 79 | 144 | 0.9 | 4.3 | 0.00 | 0.00 | 0.00 | 90 | 1011.1 |
| 20260506180041 | 79 | 86 | 1.7 | 6.1 | 0.00 | 0.00 | 0.00 | 90 | 1011.1 |
| 20260506174544 | 79 | 121 | 0.9 | 5.2 | 0.00 | 0.00 | 0.00 | 91 | 1011.0 |
| 20260506173038 | 79 | 105 | 0.9 | 3.5 | 0.00 | 0.00 | 0.00 | 91 | 1011.1 |
| 20260506171542 | 79 | 117 | 1.7 | 5.2 | 0.00 | 0.00 | 0.00 | 91 | 1011.0 |
| 20260506170100 | 79 | 127 | 0.9 | 4.3 | 0.00 | 0.00 | 0.00 | 90 | 1011.0 |
| 20260506164538 | 80 | 94 | 0.9 | 5.2 | 0.00 | 0.00 | 0.00 | 89 | 1011.2 |
| 20260506163039 | 80 | 148 | 2.6 | 6.1 | 0.00 | 0.00 | 0.00 | 90 | 1011.0 |
| 20260506161544 | 80 | 108 | 1.7 | 7.8 | 0.00 | 0.00 | 0.00 | 91 | 1010.5 |
| 20260506160040 | 80 | 17 | 0.9 | 7.0 | 0.00 | 0.00 | 0.00 | 92 | 1010.5 |
| 20260506154544 | 79 | 158 | 1.7 | 7.8 | 0.00 | 0.00 | 0.00 | 92 | 1010.2 |
| 20260506153038 | 79 | 129 | 2.6 | 7.0 | 0.00 | 0.00 | 0.00 | 93 | 1010.0 |
| 20260506151543 | 78 | 153 | 1.7 | 6.1 | 0.00 | 0.00 | 0.00 | 94 | 1010.1 |
| 20260506150037 | 77 | 78 | 2.6 | 6.1 | 0.00 | 0.00 | 0.00 | 94 | 1009.9 |
| 20260506144548 | 77 | 96 | 1.7 | 6.1 | 0.00 | 0.00 | 0.00 | 95 | 1010.2 |
| 20260506143041 | 77 | 109 | 0.9 | 5.2 | 0.00 | 0.00 | 0.00 | 95 | 1010.2 |
| 20260506141540 | 77 | 132 | 0.9 | 3.5 | 0.00 | 0.00 | 0.00 | 95 | 1010.1 |
| 20260506140040 | 77 | 81 | 0.9 | 4.3 | 0.00 | 0.00 | 0.00 | 95 | 1009.9 |
| 20260506134538 | 77 | 129 | 0.9 | 6.1 | 0.00 | 0.00 | 0.00 | 95 | 1009.6 |
| 20260506133037 | 77 | 0 | 0.9 | 3.5 | 0.00 | 0.00 | 0.00 | 95 | 1009.7 |
| 20260506131537 | 77 | 52 | 0.9 | 5.2 | 0.00 | 0.00 | 0.00 | 96 | 1009.5 |
| 20260506130045 | 77 | 117 | 0.9 | 5.2 | 0.00 | 0.00 | 0.00 | 96 | 1009.5 |
| 20260506124543 | 76 | 111 | 0.0 | 3.5 | 0.00 | 0.00 | 0.00 | 96 | 1009.6 |
| 20260506123038 | 76 | 72 | 0.0 | 3.5 | 0.00 | 0.00 | 0.00 | 96 | 1009.6 |
| 20260506121537 | 76 | 61 | 0.9 | 3.5 | 0.00 | 0.00 | 0.00 | 96 | 1009.5 |
| 20260506120042 | 76 | 199 | 0.9 | 4.3 | 0.00 | 0.00 | 0.00 | 96 | 1009.3 |
| 20260506114538 | 76 | 37 | 0.0 | 3.5 | 0.00 | 0.00 | 0.00 | 96 | 1009.1 |
| 20260506113042 | 76 | 169 | 1.7 | 4.3 | 0.00 | 0.00 | 0.00 | 96 | 1009.3 |
| 20260506111540 | 76 | 125 | 0.9 | 3.5 | 0.00 | 0.00 | 0.00 | 97 | 1009.2 |
| 20260506110038 | 76 | 119 | 0.0 | 2.6 | 0.00 | 0.00 | 0.00 | 96 | 1009.1 |
| 20260506104540 | 76 | 117 | 0.0 | 2.6 | 0.00 | 0.00 | 0.00 | 97 | 1009.1 |
| 20260506103047 | 76 | 92 | 0.9 | 2.6 | 0.00 | 0.00 | 0.00 | 97 | 1008.8 |
| 20260506101544 | 76 | 0 | 0.0 | 2.6 | 0.00 | 0.00 | 0.00 | 97 | 1008.8 |
| 20260506100041 | 76 | 67 | 0.0 | 3.5 | 0.00 | 0.00 | 0.00 | 96 | 1008.7 |
| 20260506094542 | 76 | 60 | 1.7 | 4.3 | 0.00 | 0.00 | 0.00 | 96 | 1008.6 |
| 20260506093038 | 75 | 115 | 0.9 | 2.6 | 0.00 | 0.00 | 0.00 | 96 | 1008.5 |
| 20260506091538 | 75 | 108 | 0.9 | 1.7 | 0.00 | 0.00 | 0.00 | 96 | 1008.5 |
| 20260506090049 | 76 | 96 | 0.0 | 4.3 | 0.00 | 0.00 | 0.00 | 96 | 1008.6 |
| 20260506084548 | 76 | 124 | 0.9 | 4.3 | 0.00 | 0.00 | 0.00 | 96 | 1008.7 |
| 20260506083043 | 76 | 146 | 0.9 | 5.2 | 0.00 | 0.00 | 0.00 | 96 | 1008.8 |
| 20260506081542 | 76 | 115 | 0.0 | 2.6 | 0.00 | 0.00 | 0.00 | 96 | 1008.9 |
| 20260506073053 | 76 | 149 | 0.9 | 4.3 | 0.00 | 0.00 | 0.00 | 95 | 1009.5 |
| 20260506071541 | 76 | 119 | 1.7 | 5.2 | 0.00 | 0.00 | 0.00 | 95 | 1009.8 |
| 20260506061552 | 76 | 57 | 0.9 | 7.0 | 0.00 | 0.00 | 0.00 | 95 | 1009.6 |